Location: Unspec
(0.0000°N, 0.0000°E)
Time: 02:14:13
(UTC+00:00)

ISS - Visible Passes

Search period start: 23 June 2018 00:00
Search period end: 03 July 2018 00:00
Orbit: 402 x 408 km, 51.6° (Epoch: 23 June)

Date Brightness Start Highest point End Pass type
(mag) Time Alt. Az. Time Alt. Az. Time Alt. Az.
23 Jun -1.1 04:16:28 13° SE 04:16:49 14° SE 04:18:32 10° E visible
24 Jun -3.5 04:59:50 29° WSW 05:01:07 48° NW 05:04:16 10° NNE visible
25 Jun -1.9 04:10:26 29° ENE 04:10:26 29° ENE 04:12:18 10° NE visible
26 Jun -1.5 04:53:40 13° NW 04:53:40 13° NW 04:54:53 10° NNW visible
27 Jun -0.7 04:04:07 11° N 04:04:07 11° N 04:04:17 10° N visible
